Location: Caltech
(34.1382°N, 118.1253°W)
Time: 03:31:15
(UTC-07:00)

AO-7 - Visible Passes

Search period start: 25 April 2017 00:00
Search period end: 05 May 2017 00:00
Orbit: 1439 x 1459 km, 101.6° (Epoch: 23 April)

Date Brightness Start Highest point End Pass type
(mag) Time Alt. Az. Time Alt. Az. Time Alt. Az.
25 Apr ? 03:09:01 10° NE 03:14:52 21° E 03:20:42 10° SE visible
25 Apr ? 04:59:53 10° NNE 05:08:09 72° WNW 05:16:25 10° SSW visible
26 Apr ? 04:00:14 10° NNE 04:08:15 49° ESE 04:16:13 10° S visible
27 Apr ? 03:02:29 10° NE 03:07:49 18° E 03:13:07 10° SE visible
27 Apr ? 04:52:53 10° NNE 05:01:13 79° WNW 05:09:31 10° SSW visible
28 Apr ? 03:53:23 10° NNE 04:01:15 44° E 04:09:03 10° S visible
29 Apr ? 02:56:05 10° ENE 03:00:45 16° E 03:05:24 10° SE visible
29 Apr ? 04:45:54 10° NNE 04:54:15 86° WNW 05:02:36 10° SSW visible
30 Apr ? 03:46:33 10° NNE 03:54:14 40° E 04:01:52 10° SSE visible
01 May ? 02:49:51 10° ENE 02:53:41 14° E 02:57:30 10° ESE visible
01 May ? 04:38:56 10° NNE 04:47:18 87° ESE 04:55:40 10° SSW visible
02 May ? 03:39:44 10° NE 03:47:13 36° E 03:54:38 10° SSE visible
02 May ? 05:32:13 10° N 05:39:57 45° WNW 05:47:44 10° SW visible
03 May ? 02:43:58 10° ENE 02:46:36 12° E 02:49:13 10° ESE visible
03 May ? 04:31:58 10° NNE 04:40:20 79° ESE 04:48:41 10° SSW visible
04 May ? 03:32:58 10° NE 03:40:11 32° E 03:47:22 10° SSE visible
04 May ? 05:25:09 10° N 05:33:03 50° WNW 05:40:58 10° SW visible
